This is the latest recevied weather packets stored in our database for station/object DG1ROH. If no packets are shown the sender has not sent any weather packets the latest 10 day(s).
| Time | Temp. | Humidity | Pressure | Rain* | Wind** | Luminosity | Snow |
|---|---|---|---|---|---|---|---|
| 1777217631 | 13.33° C | 35% | 1023.5 hPa | 0 mm | - | 258 W/m² | - |
| 1777217511 | 13.89° C | 33% | 1023.4 hPa | 0 mm | - | 288 W/m² | - |
| 1777217388 | 13.89° C | 35% | 1023.5 hPa | 0 mm | - | 316 W/m² | - |
| 1777217267 | 13.89° C | 34% | 1023.5 hPa | 0 mm | - | 352 W/m² | - |
| 1777217148 | 14.44° C | 34% | 1023.5 hPa | 0 mm | - | 287 W/m² | - |
| 1777217027 | 14.44° C | 34% | 1023.5 hPa | 0 mm | - | 359 W/m² | - |
| 1777216907 | 14.44° C | 35% | 1023.5 hPa | 0 mm | - | 336 W/m² | - |
| 1777216788 | 14.44° C | 36% | 1023.4 hPa | 0 mm | - | 359 W/m² | - |
| 1777216668 | 14.44° C | 35% | 1023.5 hPa | 0 mm | - | 366 W/m² | - |
| 1777216548 | 13.89° C | 35% | 1023.5 hPa | 0 mm | - | 381 W/m² | - |
| 1777216427 | 14.44° C | 34% | 1023.5 hPa | 0 mm | - | 388 W/m² | - |
| 1777216310 | 14.44° C | 35% | 1023.6 hPa | 0 mm | - | 396 W/m² | - |
| 1777216188 | 14.44° C | 35% | 1023.6 hPa | 0 mm | - | 394 W/m² | - |
| 1777216067 | 14.44° C | 35% | 1023.6 hPa | 0 mm | - | 397 W/m² | - |
| 1777215948 | 14.44° C | 34% | 1023.5 hPa | 0 mm | - | 403 W/m² | - |
| 1777215827 | 14.44° C | 35% | 1023.5 hPa | 0 mm | - | 411 W/m² | - |
| 1777215708 | 14.44° C | 38% | 1023.5 hPa | 0 mm | - | 418 W/m² | - |
| 1777215588 | 13.89° C | 36% | 1023.6 hPa | 0 mm | - | 424 W/m² | - |
| 1777215469 | 13.89° C | 36% | 1023.5 hPa | 0 mm | - | 425 W/m² | - |
| 1777215344 | 13.89° C | 35% | 1023.5 hPa | 0 mm | - | 431 W/m² | - |
| 1777215223 | 13.89° C | 34% | 1023.5 hPa | 0 mm | - | 432 W/m² | - |
| 1777215101 | 14.44° C | 37% | 1023.4 hPa | 0 mm | - | 438 W/m² | - |
| 1777214981 | 13.89° C | 35% | 1023.5 hPa | 0 mm | - | 445 W/m² | - |
| 1777214862 | 14.44° C | 35% | 1023.5 hPa | 0 mm | - | 448 W/m² | - |
| 1777214741 | 14.44° C | 35% | 1023.4 hPa | 0 mm | - | 452 W/m² | - |
* Rain latest hour (hover to see other rain measurements)
** Current wind speed in m/s (hover to see current wind gust speed)